Other Surface Observations
Issued by NWS

Current Version | Previous Version | Text Only | Print | Product List | Glossary On
Versions: 1 2 3 4 5 6 7 8 9 10 11 12 13 14 15 16 17 18 19 20 21 22 23 24 25 26 27 28 29 30 31 32 33 34 35 36 37 38 39 40 41 42 43 44 45 46 47 48 49 50
000
SXUS52 KTAE 301518
OSOTAE
OSOTAE
North Florida/South Alabama/Southwest Georgia Weather Roundup
National Weather Service Tallahassee Florida
1100 AM EDT WED JUL 30 2014

Note: "fair" indicates few or no clouds below 12,000 feet with no
significant weather and/or obstructions to visibility.

!FLZ017-115-028-034-025-301600
...North Florida...

CITY           SKY/WX    TMP DP  RH WIND       PRES   REMARKS
TALLAHASSEE    MOSUNNY   82  64  54 CALM      30.02S
APALACHICOLA   SUNNY     83  64  52 NE5       30.02S
PERRY          SUNNY     81  61  50 CALM      30.02S
CROSS CITY       N/A     85  65  51 VRB3      30.01R
HOMERVILLE     FAIR      84  64  51 CALM      30.02R
JACKSONVILLE   PTSUNNY   84  72  67 NW9       29.97F
$$

!FLZ112-006-005-002-011-301600
...Florida Panhandle...

CITY           SKY/WX    TMP DP  RH WIND       PRES   REMARKS
MARIANNA       SUNNY     78  63  59 CALM      30.04R
BONIFAY        LGT RAIN  79  62  56 N6        30.05S
PANAMA CITY NW FAIR      82  63  52 N3        30.03R
TYNDALL AFB    DRIZZLE   81  67  61 E3        30.03S
TYND DRONE APT FAIR      81  67  61 N3        30.01S
DE FUNIAK SPR  FAIR      77  60  57 N6        30.06R
EGLIN AFB      MOSUNNY   80  60  50 N6        30.04R
DESTIN         SUNNY     80  63  55 VRB3      30.04R
HURLBURT       SUNNY     81  56  42 NE6       30.03S
CRESTVIEW      SUNNY     79  60  52 VRB5      30.07R
PENSACOLA      SUNNY     77  59  53 NE6       30.05R
$$

!ALZ063-066-301600
...South Alabama...

CITY           SKY/WX    TMP DP  RH WIND       PRES   REMARKS
DOTHAN         SUNNY     75  59  57 CALM      30.09S
OZARK CAIRNS   SUNNY     76  58  52 VRB3      30.06R
FT RUCKER HELI SUNNY     78  57  48 N5        30.05R
RUCKER HELI 3  FAIR      77  57  49 N6        30.08S
RUCKER HELI 2  FAIR      77  55  46 NE5       30.05S
FLORALA APT    SUNNY     78  59  51 NE5       30.08R
ANDALUSIA      SUNNY     82  56  40 NE6       30.07R
TROY           SUNNY     76  55  48 NE8       30.07S
EUFALA         FAIR      76  60  57 VRB3      30.04S
MOBILE         MOSUNNY   77  59  53 NE7       30.08S
$$

!GAZ120>161-301600
...Southwest and South Central Georgia...

CITY           SKY/WX    TMP DP  RH WIND       PRES   REMARKS
THOMASVILLE    FAIR      81  63  54 CALM      30.04S
BAINBRIDGE     SUNNY     81  64  57 CALM      30.04S
MOODY AFB      SUNNY     83  72  70 NW5       30.01S
VALDOSTA       SUNNY     87  60  40 CALM      30.02R
MOULTRIE       SUNNY     81  61  50 NE5       30.04R
BLAKELY        SUNNY     81  61  50 N5        30.05S
ALBANY         SUNNY     80  60  50 E5        30.05S
TIFTON         FAIR      80  57  44 CALM      30.02F
FITZGERALD     FAIR      83  59  44 CALM      30.05S
CORDELE        FAIR      80  62  54 CALM      30.04S
AMERICUS       FAIR      73  59  60 CALM      30.06S
$$

!GMZ750-755-770-775-301600
...Coastal and Buoy Obs...

STATION/POSITION TIME  TEMP    WIND        PRES    VSBY  WAVE
                       AIR SEA DIR/SP/G                  HT/PER
                 (UTC) (F)     (DEG/KT/KT) (MB)    (MI)  (FT/S)
KEATON BEACH     1500   84      CALM  /  2 1016.4R
CEDAR KEY        1455   82     160/  3/  3 1016.4R
C TOWER          1500   77      10/ 10/ 10 1016.4R
APALACHICOLA BUO 1500   83 85   30/  8/ 10 1016.2R         2/ 4
PANAMA CITY BUOY 1352   84 85   60/  2/  2 1016.5R         1/ 3
MOBILE BUOY      1431   81 85   40/ 10/ 12 1017.4R
ORANGE BCH AL BU 1500   76 83   40/ 12/ 14 1017.4R         2/ 3
$$



USA.gov is the U.S. government's official web portal to all federal, state and local government web resources and services.